DB0KS Weather Reports


Display with metric or nautical units.
time (UTC)temp
F
wind
direction
speed
MPH
gust
MPH
rain 1hr
in
rain 24hr
in
rain mn
in
humidity
%
barometer
mb
20260905140003 62 124 1.0 4.0 0.00 0.00 0.00 75 1024.9
20260905130003 62 19 1.0 8.0 0.00 0.00 0.00 74 1024.7
20260905120003 65 148 3.0 8.0 0.00 0.00 0.00 58 1023.6
20260905110003 65 146 1.0 8.0 0.00 0.00 0.00 58 1023.4
20260905100003 66 173 3.0 5.0 0.00 0.00 0.00 62 1023.0
20260905090003 59 168 1.0 7.0 0.00 0.00 0.00 81 1025.0
20260905080003 62 67 0.0 3.0 0.07 0.00 0.00 68 1023.1
20260905070003 60 197 4.0 12.0 0.00 0.00 0.00 74 1023.4
20260905060003 58 160 1.0 7.0 0.00 0.00 0.00 79 1024.0
20260905050003 59 157 2.0 7.0 0.00 0.00 0.00 74 1022.9
20260905040003 61 141 1.0 9.0 0.00 0.00 0.00 67 1021.6
20260905030004 64 114 1.0 5.0 0.00 0.00 0.00 60 1020.2
20260905020003 64 164 4.0 6.0 0.00 0.00 0.00 60 1020.4
20260905010003 66 173 5.0 12.0 0.00 0.00 0.00 59 1019.8
20260905000005 66 182 4.0 7.0 0.00 0.00 0.00 59 1020.0
20260904230003 66 175 4.0 15.0 0.00 0.00 0.00 60 1020.0
20260904220003 66 139 1.0 9.0 0.00 0.00 0.00 61 1020.0
20260904210003 68 39 0.0 9.0 0.00 0.00 0.00 53 1019.4
20260904200004 68 162 4.0 7.0 0.00 0.00 0.00 49 1019.3
20260904190003 68 99 1.0 7.0 0.00 0.00 0.00 48 1018.4
20260904180003 71 189 6.0 11.0 0.00 0.00 0.00 44 1017.6
20260904170003 72 292 0.0 8.0 0.00 0.00 0.00 44 1016.9
20260904160004 74 168 1.0 5.0 0.00 0.00 0.00 43 1016.1
20260904150003 75 175 2.0 5.0 0.00 0.00 0.00 43 1016.0